Theta_e
319 321 324 325 322 313 316 318 315 317 317 318 318 315 312 312 315 319 318 319 321 325 328 327 323 327 330 332 332 332 333 333 334 334 333 334 334 332 329 327 327 326 325 322 323 320 317 317 319
319 323 325 325 318 315 315 314 316 316 317 318 317 315 312 311 314 314 315 317 319 318 321 324 328 323 326 330 331 333 332 331 331 330 331 333 333 331 334 328 327 327 325 323 320 319 317 316 316
319 322 324 316 311 315 315 314 315 316 317 317 314 312 311 310 312 311 312 316 316 316 318 319 320 317 315 318 323 330 331 331 329 327 328 330 331 331 332 332 330 328 327 324 320 318 317 314 314
320 322 320 313 316 315 314 314 315 315 317 316 314 309 308 308 308 307 309 312 315 316 315 314 314 314 315 315 316 321 330 332 331 330 328 325 329 329 330 330 330 330 329 326 322 318 316 313 313
319 319 315 315 315 315 313 315 316 313 315 313 314 309 308 306 306 307 307 308 309 310 311 313 314 315 315 315 317 322 324 324 330 331 330 329 327 327 328 329 329 328 329 328 323 323 325 329 316
319 316 315 314 315 314 314 315 315 312 313 313 310 308 306 305 306 306 306 305 305 306 307 307 307 308 309 311 313 315 318 321 324 325 328 329 329 328 327 327 328 327 327 328 328 325 328 329 330
317 312 317 314 314 315 315 316 313 311 312 312 312 306 304 304 304 304 305 305 305 305 305 306 306 306 306 305 305 306 308 315 320 323 325 326 326 326 326 326 325 325 326 328 328 328 328 327 325
318 312 318 315 314 316 315 315 313 313 311 312 311 305 304 302 303 304 305 305 305 305 305 305 306 306 306 306 306 306 305 305 306 309 320 324 325 325 325 324 324 325 323 326 328 328 327 326 326
319 315 317 315 315 315 314 313 311 312 311 307 307 305 302 302 303 304 305 305 305 304 303 302 302 301 301 301 301 302 303 305 306 306 305 307 319 325 325 324 324 322 324 324 329 328 326 326 326
316 314 316 314 313 313 314 313 312 308 306 303 302 302 302 303 304 305 305 304 302 301 300 299 298 298 298 298 299 299 299 299 300 301 301 303 305 312 322 324 325 325 325 324 326 330 328 326 326
314 314 314 314 314 314 313 312 312 307 307 305 303 301 303 304 304 303 301 299 297 297 296 296 296 296 296 296 296 297 297 297 297 298 298 298 299 302 305 315 322 324 326 327 325 328 329 327 326
314 315 315 314 314 313 312 312 309 309 308 309 305 304 303 302 302 301 299 297 296 295 294 294 294 294 294 295 296 296 296 296 296 296 296 296 297 297 298 300 311 320 322 324 327 326 327 328 328
315 315 314 314 313 312 312 311 309 305 305 304 303 302 302 301 301 299 296 296 295 293 293 293 293 294 294 294 295 295 295 295 295 295 296 296 296 296 296 297 297 308 319 322 323 325 328 328 327
315 314 314 314 313 312 310 309 310 305 303 303 302 302 301 301 301 299 296 295 294 293 293 293 293 293 293 294 295 295 295 295 295 295 295 295 295 295 295 295 295 296 304 319 321 323 325 328 327
313 312 311 312 312 311 311 308 308 307 304 302 302 301 301 300 298 297 295 295 294 292 292 292 293 293 293 294 294 295 295 295 294 294 294 294 294 294 294 294 295 295 295 305 319 322 323 324 327
312 311 312 312 311 311 309 310 307 306 304 302 301 300 299 297 296 295 295 294 293 292 292 292 292 293 293 294 294 294 294 295 295 295 294 293 293 293 293 294 294 294 294 295 306 318 321 324 325
310 312 311 310 310 310 308 308 305 304 303 302 300 300 297 295 295 295 295 294 293 292 292 292 292 292 293 293 294 294 294 293 293 292 293 293 293 292 293 293 293 295 293 294 295 305 316 321 322
312 309 307 307 310 309 309 308 304 303 302 300 299 299 296 295 295 295 295 294 292 291 291 291 291 292 292 293 293 293 293 293 292 292 291 290 290 290 292 293 293 295 293 294 294 295 304 313 318
309 308 307 307 309 310 308 309 305 304 301 298 298 297 296 295 294 294 294 293 292 292 291 291 291 291 291 291 291 292 291 292 292 291 291 290 289 288 290 291 292 293 295 294 294 294 294 305 310
308 309 308 308 307 307 307 306 306 303 301 299 297 296 295 294 294 294 293 293 292 291 290 290 290 290 290 290 290 290 290 290 291 290 290 290 290 289 287 290 291 291 292 294 295 294 295 297 303
308 309 308 308 306 304 304 305 307 302 301 298 296 297 295 294 294 293 293 292 291 290 290 290 290 289 290 290 290 290 290 290 290 290 289 289 289 288 287 287 289 290 293 295 295 295 295 298 299
308 306 306 306 305 306 303 306 305 299 300 296 296 296 294 294 294 293 293 291 291 290 289 289 289 289 289 289 290 289 288 288 287 288 289 288 288 287 286 284 286 289 291 292 292 294 295 296 298
307 305 305 305 304 304 303 303 304 299 300 297 295 295 294 294 294 293 292 291 290 289 289 288 288 288 289 289 289 289 286 284 284 287 286 287 286 284 284 283 283 288 291 294 293 293 295 295 298
305 305 304 302 301 303 303 303 302 297 300 299 296 293 294 293 293 292 291 290 289 289 289 288 287 288 288 288 288 287 285 283 283 284 284 286 284 281 282 283 282 284 288 292 294 296 294 296 296
306 303 307 307 303 309 300 301 308 301 298 298 296 293 293 293 292 292 291 290 289 289 288 288 287 288 288 288 287 286 285 284 281 282 282 284 283 279 279 281 281 282 286 289 292 295 295 296 295
305 304 308 309 308 313 301 304 304 296 295 299 297 293 293 292 292 292 291 290 289 288 288 287 288 288 288 287 287 286 285 282 281 282 282 281 278 278 277 277 279 280 283 286 289 294 296 296 295
304 302 302 302 287 295 300 300 300 293 292 291 291 292 292 292 292 292 291 289 288 288 288 288 288 287 287 287 286 285 283 282 282 284 282 278 276 276 275 275 278 279 281 284 287 292 295 295 295
301 300 302 300 307 304 303 302 306 294 292 291 290 290 292 292 292 292 291 289 289 289 288 288 287 287 287 286 285 284 283 281 283 283 280 277 275 274 274 274 275 279 279 282 284 291 293 295 295
296 299 298 300 306 308 308 312 298 297 295 292 291 291 292 292 292 291 290 289 289 288 287 287 287 286 286 285 285 283 281 281 283 281 278 275 274 273 273 273 274 276 277 279 283 287 292 293 295
299 301 300 304 305 303 304 310 296 297 296 294 292 291 292 292 292 291 290 289 288 287 287 286 286 286 286 285 283 282 281 281 283 279 276 274 273 273 272 273 273 274 277 278 281 284 290 292 294
Wind_Speed
4 3 2 1 4 5 2 2 2 3 2 2 7 23 12 19 4 6 3 12 10 8 11 13 11 9 8 6 6 8 10 11 11 11 11 11 13 14 14 13 12 13 14 16 19 18 17 16 15
4 3 2 2 4 3 3 2 4 4 7 9 16 13 19 4 17 7 8 12 9 10 6 5 8 8 5 4 5 8 9 12 13 14 15 15 15 16 16 16 14 14 15 15 17 20 19 18 18
3 2 1 4 4 4 4 3 4 3 5 7 8 17 7 11 12 6 10 9 9 8 8 10 10 9 7 6 9 8 10 11 14 16 18 18 19 19 19 18 17 17 17 17 17 18 20 19 20
2 2 3 4 3 1 7 5 6 7 4 11 23 10 10 16 4 8 8 6 5 5 7 9 10 10 9 9 7 8 12 13 14 16 18 19 21 22 22 22 22 20 19 19 19 18 18 19 20
3 2 4 4 2 1 3 3 7 3 5 11 8 7 8 12 9 7 8 7 10 10 9 9 10 10 10 12 11 10 10 13 16 16 17 20 22 23 24 24 24 24 22 21 21 20 19 19 20
1 2 4 2 3 2 2 7 13 7 9 10 16 10 6 7 4 7 7 11 14 14 16 16 17 17 14 12 13 14 15 16 15 18 20 20 20 23 25 26 26 26 26 25 24 23 22 22 22
4 3 3 3 7 2 2 2 6 6 4 7 12 5 10 7 6 4 6 8 12 15 15 16 16 17 18 19 20 18 16 16 19 20 21 23 24 24 24 26 27 27 28 27 27 26 26 25 25
2 4 2 1 5 3 1 4 11 8 3 7 7 7 6 9 3 2 4 8 11 12 13 15 16 16 17 19 19 20 21 20 20 20 23 23 24 25 27 28 29 29 31 30 29 29 30 29 28
1 4 1 1 4 3 4 3 5 6 10 9 6 9 16 8 3 2 4 7 9 11 13 16 17 19 20 20 21 22 22 22 22 21 20 22 28 27 26 26 26 31 33 33 31 31 31 31 31
4 3 3 1 3 3 2 5 12 6 11 10 22 18 13 7 3 2 5 8 10 13 17 20 22 23 24 27 27 27 25 23 22 23 24 22 22 28 30 28 28 28 29 33 33 32 34 32 35
1 3 3 1 4 4 4 3 5 23 3 13 21 19 12 7 2 4 7 11 13 15 18 22 26 28 30 32 32 32 30 29 27 23 24 26 26 26 26 30 33 32 29 32 35 37 37 37 37
3 1 2 7 2 4 5 6 5 4 4 17 23 17 12 7 5 5 7 8 11 15 20 23 27 28 30 32 34 33 32 32 29 30 29 28 28 30 28 29 28 28 34 34 34 39 40 40 40
0 3 1 3 5 6 7 5 7 11 19 21 21 16 11 8 6 5 6 7 12 18 20 24 27 28 30 32 33 35 34 32 31 30 30 33 33 31 33 34 32 31 29 33 37 37 41 44 42
3 4 8 5 4 6 7 5 3 15 23 22 19 15 11 9 6 4 2 6 12 19 20 24 27 28 31 32 35 37 37 37 36 32 30 31 35 39 36 35 36 36 32 31 30 39 41 44 45
4 5 5 6 6 4 9 1 9 21 27 25 21 18 14 9 7 4 2 5 11 19 20 24 27 29 32 34 35 36 37 38 39 38 38 40 38 39 41 38 38 37 38 34 35 29 42 43 47
2 2 2 3 6 3 6 9 6 28 32 27 22 20 17 12 8 4 1 3 11 19 22 25 28 30 32 34 35 36 37 37 38 40 44 46 44 41 39 39 41 39 38 39 38 36 31 45 45
4 4 5 6 11 3 6 6 5 31 30 27 26 24 19 15 11 5 2 4 13 20 22 26 28 31 35 36 36 36 37 40 42 43 44 45 45 40 38 40 41 39 42 40 40 43 33 34 48
5 5 6 6 3 4 6 14 7 28 28 29 29 25 21 17 13 9 5 5 13 20 23 26 29 32 35 37 38 38 40 42 44 46 46 46 42 36 34 39 39 42 41 42 40 40 44 35 32
3 5 7 5 5 4 10 17 12 25 22 22 29 27 23 18 13 9 5 6 15 20 23 27 30 32 34 37 40 42 45 47 48 49 48 47 44 37 35 37 40 38 39 42 41 40 44 47 24
5 6 8 9 4 5 10 12 9 18 28 35 33 31 26 20 16 11 6 8 17 21 22 26 29 31 33 35 39 42 46 49 52 54 53 51 49 44 39 39 36 37 41 41 40 38 40 41 53
4 5 6 8 4 5 8 7 18 4 18 23 28 32 28 23 18 11 5 10 16 20 23 26 29 30 33 36 40 43 46 50 54 55 57 55 51 45 40 38 38 40 37 40 40 36 37 35 49
6 2 5 4 4 3 4 8 4 6 15 12 25 31 28 22 17 11 5 9 15 19 21 25 28 29 33 36 40 43 48 53 53 57 58 59 54 46 41 36 38 35 35 42 40 36 38 39 43
7 1 4 3 4 3 6 5 6 4 10 15 22 33 28 23 18 12 5 10 14 18 19 26 29 30 33 36 39 43 47 50 53 57 57 59 55 46 43 37 38 37 32 35 39 38 39 38 33
2 4 4 3 3 2 7 9 5 6 11 9 20 30 30 24 18 11 5 9 14 16 20 26 31 32 34 38 40 43 46 50 54 56 58 62 56 47 46 42 36 37 35 29 34 37 39 41 41
3 4 4 4 2 7 3 4 16 8 7 11 22 30 32 26 20 12 6 9 14 17 20 27 32 34 37 39 41 44 47 50 51 53 57 61 55 50 45 38 35 34 38 34 31 35 38 40 40
5 7 4 6 4 14 4 8 6 5 11 21 25 33 30 25 19 12 7 11 14 17 22 29 34 37 38 39 42 45 47 49 50 53 57 56 51 51 41 38 42 41 37 34 33 31 42 41 38
4 5 1 1 2 3 5 7 6 4 2 9 21 31 30 24 18 12 8 11 14 17 24 32 35 37 39 41 43 46 48 50 51 54 56 52 49 49 43 44 36 35 34 38 33 32 42 41 37
4 4 3 1 3 7 6 9 12 8 11 9 12 23 28 23 18 12 10 12 16 23 27 31 34 37 40 43 45 48 50 50 50 54 55 48 47 46 46 43 41 40 40 37 35 37 29 42 37
2 3 3 2 4 4 4 14 6 16 18 19 17 28 31 25 19 12 10 13 19 22 27 31 35 38 42 44 47 50 52 51 51 53 52 47 47 44 45 44 38 38 40 38 39 37 30 37 35
2 9 11 5 6 5 3 17 5 11 12 24 25 29 29 24 17 12 9 12 17 23 29 33 36 39 42 45 49 51 52 52 52 53 50 49 46 43 44 41 40 41 40 36 37 38 32 31 39
Wind_Direction
117 174 151 85 58 66 352 24 46 130 80 75 58 93 102 50 27 135 298 26 23 23 18 2 356 360 7 338 319 308 295 293 287 284 285 280 283 293 288 283 287 296 288 279 270 263 257 256 249
132 155 167 90 85 75 282 302 137 164 146 120 85 83 48 74 40 46 43 4 352 340 338 347 1 347 325 294 294 300 301 301 300 295 288 282 278 288 291 296 295 292 294 283 274 271 261 253 248
133 137 132 98 110 153 174 222 172 142 112 125 113 67 46 336 24 52 21 348 314 315 333 328 329 320 312 303 273 262 277 284 289 290 290 285 282 283 282 290 291 292 291 290 276 267 267 256 248
146 125 71 82 121 65 166 201 152 129 102 81 107 71 83 50 62 57 19 341 328 2 334 327 313 311 318 308 286 266 259 273 280 282 283 284 282 280 281 282 284 286 286 284 280 270 261 259 250
70 99 61 91 79 73 282 114 96 87 83 103 99 119 96 68 77 63 38 26 33 32 20 4 349 335 320 320 314 301 293 265 269 274 277 280 281 280 280 279 279 282 281 277 274 271 263 257 257
87 78 58 151 121 230 278 117 94 76 104 96 103 101 91 98 70 51 40 43 52 52 49 45 41 33 21 354 335 326 312 300 290 275 277 276 277 282 280 280 277 276 278 275 269 269 262 259 255
106 81 168 144 159 182 181 90 90 94 82 46 141 88 118 110 77 47 41 48 48 46 43 42 38 35 31 26 23 15 349 318 303 296 283 280 276 274 278 279 278 277 274 272 270 266 263 260 255
51 88 67 143 179 186 332 82 92 82 96 91 134 155 149 117 128 331 20 39 42 42 36 33 26 19 14 10 6 3 358 360 354 323 298 290 285 279 277 275 275 272 273 270 268 267 262 259 256
65 60 13 282 147 180 157 107 64 121 121 77 113 127 131 148 195 244 12 33 38 38 30 24 18 12 8 1 355 348 341 335 333 333 334 315 288 288 286 283 284 277 274 263 266 267 262 258 255
81 104 209 318 136 159 92 132 154 108 103 94 106 123 144 184 218 339 14 38 33 25 19 12 10 6 2 359 355 350 343 334 324 319 319 313 313 295 285 282 278 271 271 270 264 263 263 258 255
119 168 164 69 113 164 144 116 163 135 212 181 158 148 174 186 152 54 55 47 35 24 14 9 5 4 1 358 355 351 349 343 336 329 320 313 309 301 304 288 279 277 278 268 262 262 260 258 255
353 274 142 172 178 158 152 172 97 216 177 178 170 177 178 175 126 92 68 47 27 17 10 6 4 2 359 354 350 348 346 344 338 335 332 324 313 307 303 299 293 286 279 279 270 260 260 259 257
182 327 78 161 150 132 157 203 156 135 145 157 166 173 174 160 129 99 64 43 25 12 5 2 2 360 356 353 349 347 346 342 337 332 329 327 321 312 304 299 295 287 278 281 275 270 261 257 256
326 302 294 281 200 174 138 193 180 173 161 163 172 179 182 176 155 140 92 39 22 7 1 358 1 359 356 351 348 345 344 340 336 331 324 321 318 312 307 298 293 289 285 273 289 276 271 258 254
317 333 325 243 197 221 137 296 229 187 176 176 181 183 178 168 147 169 93 25 10 4 1 360 357 355 353 351 346 344 342 340 337 333 329 326 322 311 305 301 297 292 287 278 272 277 271 267 256
34 53 351 272 175 218 159 258 224 189 181 185 181 176 171 163 169 178 150 7 4 360 0 358 355 353 351 348 344 342 340 337 332 330 329 325 320 315 305 300 298 296 288 283 269 271 284 260 260
3 245 225 303 208 143 187 264 223 186 189 187 187 181 175 167 163 182 231 336 347 354 357 357 356 353 349 346 342 338 336 337 338 334 330 326 320 312 303 298 299 296 296 289 285 269 269 264 254
247 276 265 233 240 212 249 262 194 193 196 195 192 187 183 176 179 198 222 308 340 351 355 355 355 352 348 343 340 340 338 336 337 337 335 329 323 310 295 293 293 291 294 293 287 288 266 268 265
219 238 235 246 237 220 235 245 212 201 207 205 199 191 189 184 187 200 229 305 338 346 350 354 351 349 348 345 343 340 339 338 336 336 336 333 323 309 286 285 287 286 288 291 290 289 295 265 281
233 264 265 286 249 184 271 250 239 186 212 207 196 194 189 184 187 200 237 316 340 347 348 352 351 347 347 343 341 339 336 336 336 336 336 334 327 320 292 278 280 286 288 286 286 290 295 283 265
228 213 251 239 340 289 288 248 244 207 218 208 202 197 195 191 192 200 240 326 340 344 347 349 349 345 343 340 337 335 333 333 334 334 334 335 329 321 309 287 275 280 283 281 282 287 289 293 276
278 216 260 285 1 254 344 294 260 194 224 200 191 199 193 189 194 202 247 325 337 340 343 343 347 342 341 338 336 335 334 331 332 332 332 333 329 321 318 305 274 276 275 277 277 280 288 292 277
238 10 267 262 256 348 235 251 245 150 239 211 196 198 192 194 198 203 255 325 338 340 339 343 342 342 337 337 335 334 330 328 329 330 330 331 326 320 317 307 287 267 274 279 274 277 281 289 257
36 326 294 53 113 231 232 197 222 192 219 197 198 195 193 191 194 207 260 325 337 336 336 339 340 338 336 336 334 331 329 328 327 330 329 328 323 318 315 307 295 272 267 270 275 271 274 283 269
88 55 312 331 343 239 168 224 261 241 229 198 194 188 191 191 195 209 260 323 335 334 338 337 336 337 337 334 332 330 329 328 327 328 326 324 322 312 314 307 297 285 264 265 275 268 270 274 276
177 172 177 266 244 295 319 245 253 289 293 237 191 181 185 190 201 220 277 320 328 331 336 334 337 336 334 332 330 328 327 327 326 326 324 320 312 313 314 305 294 287 274 268 265 277 263 269 281
179 186 168 237 99 11 239 280 284 78 57 122 154 175 188 195 207 229 276 313 322 332 333 334 333 331 331 330 329 328 327 328 326 325 323 317 310 309 299 301 294 285 282 260 265 266 263 269 279
164 157 76 340 283 271 257 270 247 200 206 184 185 192 195 203 211 230 275 308 325 332 332 331 331 331 330 330 330 329 328 328 327 325 323 315 310 303 305 303 283 275 272 264 258 257 270 265 274
141 212 204 208 159 235 299 280 212 195 204 191 201 197 199 204 214 232 278 318 329 326 326 331 331 331 331 331 329 329 328 329 327 326 323 312 310 303 303 301 294 282 275 270 256 255 261 265 269
207 202 178 187 218 222 239 261 199 202 202 196 203 198 202 208 214 238 293 311 317 322 330 333 332 332 332 331 329 329 329 328 328 328 320 314 311 305 303 300 291 287 279 274 261 259 260 267 267